This demonstration page uses our WeatherBlox Daily Observations layout. Learn more.

Left ArrowRight Arrow

Hourly Observations for September 26, 2018

Temp ( °F °C ) Dew Point ( °F °C ) Humidity (%) Winds ( mph kmh ) Pressure ( in mb ) Visibility ( mi km ) Precip ( " mm )
12:05 am 00:05 Cloudy 74 23.3 71 21.7 91 91 SSW 6 9 29.97 1015 10 16 0.00 0.00
12:12 am 00:12 Cloudy 74 23.3 71 21.7 91 91 SSW 5 7 29.97 1015 10 16 0.00 0.00
12:53 am 00:53 Cloudy 73 22.8 71 21.7 94 94 SSW 5 7 29.95 1014 10 16 0.00 0.00
1:18 am 01:18 Cloudy 73 22.8 70 21.1 90 90 VRB 3 6 29.97 1015 10 16 0.00 0.00
1:53 am 01:53 Partly Cloudy 73 22.8 70 21.1 90 90 VRB 5 7 29.93 1014 10 16 0.00 0.00
2:04 am 02:04 Mostly Cloudy 73 22.8 70 21.1 90 90 SW 7 11 29.94 1014 10 16 0.00 0.00
2:21 am 02:21 Cloudy 74 23.3 70 21.1 88 88 SW 8 13 29.94 1014 10 16 0.00 0.00
2:53 am 02:53 Cloudy 74 23.3 70 21.1 88 88 SSW 8 13 29.93 1014 10 16 0.00 0.00
3:31 am 03:31 Cloudy with Mist and Fog 73 22.8 70 21.1 90 90 SSW 6 9 29.94 1014 4 6 0.00 0.00
3:44 am 03:44 Cloudy 73 22.8 69 20.6 87 87 VRB 6 9 29.94 1014 8 13 0.00 0.00
3:53 am 03:53 Mostly Cloudy 73 22.8 69 20.6 87 87 SW 6 9 29.91 1013 8 13 0.00 0.00
4:28 am 04:28 Mostly Cloudy 72 22.2 69 20.6 91 91 SW 3 6 29.94 1014 10 16 0.00 0.00
4:39 am 04:39 Cloudy 72 22.2 69 20.6 91 91 Calm 29.94 1014 10 16 0.00 0.00
4:53 am 04:53 Cloudy with Light Rain 72 22.2 70 21.1 94 94 VRB 7 11 29.92 1013 6 10 0.01 0.25
5:03 am 05:03 Cloudy with Light Rain 72 22.2 70 21.1 94 94 WSW 9 15 29.94 1014 8 13 0.00 0.03
5:53 am 05:53 Cloudy 72 22.2 70 21.1 94 94 WSW 6 9 29.92 1013 9 14 0.01 0.25
6:53 am 06:53 Cloudy 72 22.2 70 21.1 94 94 WSW 6 9 29.94 1014 8 13 0.00 0.00
7:16 am 07:16 Cloudy 72 22.2 70 21.1 94 94 WSW 6 9 29.97 1015 8 13 0.00 0.00
7:41 am 07:41 Cloudy with Rain 71 21.7 70 21.1 96 96 WNW 12 19 29.97 1015 3 4 0.07 1.78
7:46 am 07:46 Cloudy with Heavy Rain 70 21.1 68 20 93 93 WNW 13 20 29.97 1015 2 3 0.13 3.30
7:51 am 07:51 Cloudy with Light Rain 70 21 66 19 88 88 WNW 12 19 29.97 1015 3 5 0.13 3.30
7:53 am 07:53 Cloudy with Light Rain 70 21.1 67 19.4 90 90 WNW 13 20 29.97 1015 4 6 0.13 3.30
8:53 am 08:53 Cloudy 70 21.1 67 19.4 90 90 WNW 6 9 29.98 1015 10 16 0.00 0.03
9:53 am 09:53 Cloudy 71 21.7 66 18.9 84 84 WNW 8 13 30.00 1016 10 16 0.00 0.00
10:42 am 10:42 Mostly Cloudy 68 20 63 17.2 84 84 NNW 12 19 30.03 1017 10 16 0.00 0.00
10:53 am 10:53 Partly Cloudy 70 21.1 64 17.8 82 82 NW 14 22 30.01 1016 10 16 0.00 0.00
11:49 am 11:49 Cloudy 68 20 63 17 83 83 WNW 14 22 30.06 1018 10 16 0.00 0.00
11:53 am 11:53 Cloudy 68 20 61 16.1 78 78 WNW 14 22 30.06 1018 10 16 0.00 0.00
12:53 pm 12:53 Cloudy 67 19.4 60 15.6 79 79 NW 14 22 30.08 1019 10 16 0.00 0.00
1:53 pm 13:53 Cloudy 65 18.3 60 15.6 84 84 N 9 15 30.11 1020 10 16 0.00 0.00
2:16 pm 14:16 Cloudy 67 19.4 60 15.6 79 79 N 8 13 30.09 1019 10 16 0.00 0.00
2:53 pm 14:53 Mostly Sunny 68 20 60 15.6 76 76 N 8 13 30.09 1019 10 16 0.00 0.00
3:14 pm 15:14 Partly Cloudy 69 20.6 59 15 70 70 WNW 7 11 30.06 1018 10 16 0.00 0.00
3:53 pm 15:53 Partly Cloudy 69 20.6 56 13.3 63 63 NNW 7 11 30.08 1019 10 16 0.00 0.00
4:53 pm 16:53 Sunny 70 21.1 52 11.1 53 53 NNW 9 15 30.07 1018 10 16 0.00 0.00
5:53 pm 17:53 Sunny 70 21.1 51 10.6 51 51 NNW 7 11 30.07 1018 10 16 0.00 0.00
6:53 pm 18:53 Sunny 66 18.9 50 10 56 56 NNW 5 7 30.09 1019 10 16 0.00 0.00
7:53 pm 19:53 Clear with Light Rain 57 13.9 54 12.2 90 90 Calm 30.09 1019 10 16 0.00 0.03
8:53 pm 20:53 Clear 56 13.3 53 11.7 90 90 Calm 30.11 1020 10 16 0.00 0.03
9:53 pm 21:53 Clear 56 13.3 53 11.7 90 90 NNW 3 6 30.13 1020 10 16 0.00 0.00
10:53 pm 22:53 Clear 54 12.2 52 11.1 93 93 Calm 30.14 1021 10 16 0.00 0.00
11:53 pm 23:53 Clear 54 12.2 52 11.1 93 93 Calm 30.14 1021 10 16 0.00 0.00

Powered by AerisWeather